www.pogodaiklimat.ru

Погода и климат >> Архив погоды >> Гондурас >> La Esperanza


ПОГОДА в La Esperanza

  • Прогноз погоды в La Esperanza
  • Монитор погоды в La Esperanza
  • Климат города

АРХИВ ПОГОДЫ в La Esperanza

Время (UTC), дата Ветер
(напр.,м/с)
 
Видим.   Явления Облачность Т
(С)
Тd
(С)
f
(%)
Тe
(С)
Тes
(С)
Комфортность P
(гПа)
Po
(гПа)
Тmin
(С)
Tmax
(С)
R
(мм)
R24
(мм)
S
(см)
12 13.09 штиль 0 <100 м туман ?/? +15.2 +15.0 99 +15 +15 1011.5 834.4 +14.6 +25.2 0.4
15 13.09 ЮВ 2 20 км {туман} 9/5 660 м
[Cu hum Ci fib]
+19.4 +16.3 82 +22 +27 комфорт 1012.0 835.4
18 13.09 В 3 20 км {туман} 6/5 720 м
[Cu med, cong Ci fib]
+24.4 +14.4 54 +27 +35 жарко 1010.5 835.2 +14.6 +24.4
21 13.09 В 4 20 км 8/8 720 м
[Cb cap Ci ing]
+24.0 +16.7 64 +28 +29 душно 1008.5 833.6
00 14.09 штиль 0 5000 м осадки на расстоянии 9/9 480 м
[Cb cap Ci ing]
+19.0 +17.9 93 +20 +20 1009.9 833.7 +14.6 +25.0
12 14.09 штиль 0 5000 м 9/5 540 м
[Sc Cc]
+13.6 +13.3 98 +13 +13 1012.0 834.9 +12.0 +25.0 1
15 14.09 В 3 20 км {туман} 8/1 660 м
[Cu hum Ci fib]
+21.2 +14.4 65 +24 +31 комфорт 1010.5 835.2
21 14.09 В 2 20 км 5/5 720 м
[Cb cap Ci ing]
+23.6 +16.7 65 +27 +32 жарко 1008.6 833.1
15 15.09 штиль 0 20 км 9/4 600 м
[Cu hum Ac trans Cs]
+19.6 +17.0 85 +22 +27 комфорт 1012.7 836.5
18 15.09 СВ 2 20 км 9/4 720 м
[Cu med, cong Cs]
+23.0 +14.8 60 +27 +37 душно 1010.6 835.3 +13.2 +23.0
21 15.09 СВ 2 20 км 8/5 720 м
[Cb cap Ac cuf Ci ing]
+23.2 +17.4 70 +29 +32 душно 1008.3 833.4
00 16.09 штиль 0 20 км гроза без осадков 9/8 660 м
[Cb cap Ac cuf Ci ing]
+19.6 +17.3 87 +22 +22 комфорт 1009.7 833.5 +13.2 +24.4
12 16.09 штиль 0 20 км 8/5 540 м
[Sc diur, vesp Ac trans Ci fib]
+16.0 +15.7 98 +16 +16 1010.6 834.7 +15.4 +24.4 0.6
15 16.09 штиль 0 20 км 8/8 600 м
[Cu hum Ci fib]
+19.6 +17.6 88 +22 +25 комфорт 1011.5 800.6
18 16.09 СВ 2 20 км 5/4 720 м
[Cu med, cong Ac trans Ci fib]
+23.8 +15.5 60 +27 +38 жарко 1009.7 835.0 +15.4 +23.8
21 16.09 СВ 2 20 км 8/4 720 м
[Cb cap Ac cuf Ci ing]
+22.8 +16.9 69 +28 +31 душно 1007.7 833.4
12 17.09 СВ 1 20 км 9/4 660 м
[Sc diur, vesp As op]
+15.8 +15.5 98 +16 +16 1012.8 866.5 +15.0 +25.4 10
15 17.09 СВ 2 20 км 5/4 720 м
[Cu hum Ci fib]
+19.2 +15.7 80 +21 +28 комфорт 1013.3 837.4
18 17.09 СВ 2 20 км 5/1 720 м
[Cu hum Ci fib]
+22.8 +15.1 62 +27 +44 душно 1011.5 836.6 +15.5 +22.8
21 17.09 СВ 1 20 км 5/4 720 м
[Cu med, cong Ci fib]
+23.2 +15.0 60 +27 +34 душно 1009.1 834.9
12 18.09 СВ 3 6000 м 9/5 540 м
[Sc diur, vesp Ac trans Ci fib]
+15.9 +14.1 89 +15 +15 1010.6 834.8 +15.6 +23.8
15 18.09 СВ 5 20 км 6/1 660 м
[Sc diur, vesp Ac trans Ci fib]
+20.3 +13.7 66 +22 +26 комфорт 1011.2 835.2
18 18.09 В 4 20 км 5/4 720 м
[Cu med, cong Ac trans Ci fib]
+23.0 +14.4 58 +27 +34 душно 1010.0 834.9 +15.5 +23.0
21 18.09 В 3 20 км 5/5 720 м
[Cu med, cong Ci fib]
+23.0 +13.7 56 +26 +30 жарко 1008.1 833.2
00 19.09 штиль 0 8000 м 9/4 540 м
[Cb cap Ci ing]
+19.5 +14.9 75 +21 +21 комфорт 1008.7 833.2 +15.5 +24.2
12 19.09 В 1 6000 м 9/9 480 м
[Sc diur, vesp Ci fib]
+16.2 +15.3 94 +17 +17 1009.9 834.1 +14.6 +24.2 3
18 19.09 В 4 20 км 9/9 660 м
[Cu med, cong]
+21.2 +16.0 72 +25 +26 комфорт 1011.0 835.0 +14.6 +21.4
00 20.09 штиль 0 20 км 9/3 660 м
[Cb cap Ac cuf Ci ing]
+16.7 -1 -1 1009.3 833.1 +14.6 +23.6

 

Местоположение метеостанции La Esperanza (Гондурас): широта 14.32 долгота -88.16 высота над уровнем моря 1674 м.

В архиве по умолчанию представлена погода в La Esperanza за последнюю неделю. Архивные данные за месяц целиком и за предыдущие месяцы, начиная с января 2011 года, Вы можете получить, выбрав интересующий диапазон дат из раскрывающегося списка и нажав кнопку "Ввод!".


*Определитесь, кто Вы:
робот инопланетянин человек

Внимание! Время в таблицах - всемирное. Для получения местного времени необходимо прибавить поправку, которая в La Esperanza равна -6 ч.

Смотрите также архив погоды в соседних городах и на ближайших метеорологических станциях:

Погода в Santa Rosa De Copan (Гондурас) (84 км)
Погода в Tegucigalpa (Гондурас) (107 км)
Погода в Nueva Ocotepeque (Гондурас) (111 км)
Погода в La Mesa (Гондурас) (128 км)
Погода в Amapala (Гондурас) (129 км)
Погода в Yoro (Гондурас) (147 км)
Погода в Choluteca (Гондурас) (155 км)
Погода в Puerto Barrios (Гватемала) (163 км)
Погода в Tela (Гондурас) (172 км)
Погода в La Ceiba (Гондурас) (210 км)

Пояснения к столбцам:

Ветер - указаны скорость ветра в м/с - средняя за 10 мин, порывы в срок и между сроками (в фигурных скобках) и направление, откуда дует ветер: С - северный, СВ - северо-восточный, В - восточный, ЮВ - юго-восточный, Ю - южный, ЮЗ - юго-западный, З - западный, СЗ - северо-западный.
Видимость - горизонтальная дальность видимости в метрах или километрах. При видимости от 1 до 10 км при отсутствии осадков обычно наблюдается дымка, при ухудшении видимости до 1 км и менее - туман. В сухую погоду видимость может ухудшаться дымом, пылью или мглою.
Явления - указаны атмосферные явления, наблюдавшиеся в срок или в последний час перед сроком; фигурными скобками обозначены явления, наблюдавшиеся между сроками (за 1-3 часа до срока); квадратными скобками обозначены град или гололедные отложения с указанием их диаметра в мм.
Облачность - указаны через наклонную черту общая и нижняя облачность в баллах и высота нижней границы облаков в метрах; квадратными скобками обозначены формы облаков: Ci - перистые, Cs - перисто-слоистые, Cc - перисто-кучевые, Ac - высококучевые, As - высокослоистые, Sc - слоисто-кучевые, Ns - слоисто-дождевые, Cu - кучевые, Cb - кучево-дождевые. Подробнее классификацию облаков см. в Атласе облаков (PDF).
T - Температура воздуха - температура, измеренная на высоте 2 м над землей.
Td - Температура точки росы - температура, при понижении до которой содержащийся в воздухе водяной пар достигнет насыщения.
f - Относительная влажность воздуха - влажноcть воздуха, измеренная на высоте 2 м над землей.
Te - Эффективная температура - температура, которую ощущает одетый по сезону человек в тени. Характеристика душности погоды. При расчете учитывается влияние влажности воздуха и скорости ветра на теплоощущения человека.
Tes - Эффективная температура на солнце - температура, которую ощущает человек, с поправкой на солнечный нагрев. Характеристика знойности погоды. Зависит от высоты солнца над горизонтом, облачности и скорости ветра. Ночью, в пасмурную погоду, а также при ветре 12 м/с и более поправка равна нулю.
P - Атмосферное давление - приведенное к уровню моря атмосферное давление.
Po - Атмосферное давление - измеренное на уровне метеостанции атмосферное давление.
Tmin - Минимальная температура - минимум температуры воздуха на высоте 2 м над землей.
Tmax - Максимальная температура - максимум температуры воздуха на высоте 2 м над землей.
R - Количество осадков - Количество выпавших осадков за период времени, мм. При наведении курсора мыши на число - период времени, за который выпало указанное количество осадков.
R24 - Количество осадков - Количество выпавших осадков за 24 часа, мм.
S - Снежный покров - Высота снежного покрова, см. При наведении курсора мыши на число - состояние снежного покрова и степень покрытия местности в баллах.